Weather History for Split Airport, Croatia

Change the Weather History Date:

Wednesday, August 21, 2013

  Actual Average Record
Temperature  
Mean Temperature 83 °F -  
Max Temperature 90 °F - - ()
Min Temperature 76 °F - - ()
Cooling Degree Days 18    
Growing Degree Days 33 (Base 50)    
Moisture  
Dew Point 56 °F    
Average Humidity 39    
Maximum Humidity 47    
Minimum Humidity 24    
Precipitation  
Precipitation 0.00 in - - ()
Sea Level Pressure  
Sea Level Pressure 29.98 in    
Wind  
Wind Speed 8 mph ()    
Max Wind Speed 16 mph    
Max Gust Speed 26 mph    
Visibility 11.4 miles    
Events      
T = Trace of Precipitation, MM = Missing Value Source: Averaged Metar Reports

Daily Weather History Graph

Daily Weather History Graph

Search for Another Location

Airport:

Trip Planner

Search our weather history database for the weather conditions in past years. The results will help you decide how hot, cold, wet, or windy it might be!

Date:

Astronomy

Aug. 21, 2013 Rise Set
Actual Time 6:06 AM CEST 7:48 PM CEST
Civil Twilight 5:35 AM CEST 8:19 PM CEST
Nautical Twilight 4:58 AM CEST 8:55 PM CEST
Astronomical Twilight 4:18 AM CEST 9:35 PM CEST
Moon 7:43 PM CEST (8/21) 6:28 AM CEST (8/21)
Length of Visible Light 14h 43m
Length of Day
13h 42m
Full, 100% of the Moon is Illuminated
Aug 21
Full
Aug 28
Last Quarter
Sep 5
New
Sep 12
First Quarter
Sep 19
Full

Hourly Weather History & Observations

Time (CEST) Temp. Heat Index Dew Point Humidity Pressure Visibility Wind Dir Wind Speed Gust Speed Precip Events Conditions
12:00 AM 78.8 °F - 55.4 °F 44% 29.98 in - NE 5.8 mph - N/A   Clear
12:30 AM 78.8 °F - 55.4 °F 44% 29.98 in - NE 10.4 mph - N/A   Clear
1:00 AM 78.8 °F - 55.4 °F 44% 29.98 in - NNE 11.5 mph - N/A   Clear
1:30 AM 77.0 °F - 55.4 °F 47% 29.98 in - NNE 13.8 mph - N/A   Clear
2:00 AM 77 °F - 55 °F 36% 29.99 in 12 mi NNE 15.7 mph - -   Clear
2:00 AM 77.0 °F - 55.4 °F 47% 29.98 in - NNE 15.0 mph 26.5 mph N/A   Clear
2:30 AM 77.0 °F - 55.4 °F 47% 29.98 in - NNE 11.5 mph - N/A   Clear
3:00 AM 77.0 °F - 55.4 °F 47% 29.98 in - NNE 11.5 mph - N/A   Clear
3:30 AM 77.0 °F - 55.4 °F 47% 29.98 in - NNE 12.7 mph - N/A   Clear
4:00 AM 77.0 °F - 55.4 °F 47% 29.98 in - NNE 8.1 mph - N/A   Clear
4:30 AM 77.0 °F - 55.4 °F 47% 29.98 in - NNE 10.4 mph - N/A   Clear
5:00 AM 76 °F - 54 °F 37% 29.97 in 12 mi NNE 8.9 mph - -   Clear
5:00 AM 77.0 °F - 55.4 °F 47% 29.95 in - NNE 9.2 mph - N/A   Clear
5:30 AM 77.0 °F - 53.6 °F 44% 29.98 in - NNE 9.2 mph - N/A   Clear
6:00 AM 77.0 °F - 53.6 °F 44% 29.98 in - NNE 10.4 mph - N/A   Clear
6:30 AM 77.0 °F - 53.6 °F 44% 29.98 in - NNE 10.4 mph - N/A   Clear
7:00 AM 77.0 °F - 53.6 °F 44% 29.98 in - NNE 10.4 mph - N/A   Clear
7:30 AM 77.0 °F - 53.6 °F 44% 29.98 in - NNE 10.4 mph - N/A   Clear
8:00 AM 78.8 °F - 53.6 °F 42% 29.98 in - NE 8.1 mph - N/A   Clear
8:30 AM 80.6 °F 80.3 °F 53.6 °F 39% 30.01 in - NE 8.1 mph - N/A   Clear
9:00 AM 82.4 °F 81.7 °F 55.4 °F 39% 30.01 in - NE 10.4 mph - N/A   Clear
9:30 AM 84.2 °F 83.0 °F 55.4 °F 37% 30.01 in - ENE 10.4 mph - N/A   Clear
10:00 AM 84.2 °F 83.0 °F 55.4 °F 37% 30.01 in - ENE 9.2 mph - N/A   Clear
10:30 AM 86.0 °F 84.5 °F 55.4 °F 35% 30.01 in - East 11.5 mph - N/A   Clear
11:00 AM 86 °F - 56 °F 25% 30.00 in 19 mi East 8.9 mph - -  
11:00 AM 86.0 °F 84.5 °F 55.4 °F 35% 30.01 in - East 9.2 mph - N/A   Clear
11:30 AM 87.8 °F 86.5 °F 57.2 °F 35% 30.01 in - East 8.1 mph - N/A   Clear
12:00 PM 86.0 °F 84.5 °F 55.4 °F 35% 30.01 in - Variable 4.6 mph - N/A   Clear
12:30 PM 86.0 °F 84.9 °F 57.2 °F 37% 30.01 in - SE 6.9 mph - N/A   Clear
1:00 PM 86.0 °F 84.9 °F 57.2 °F 37% 30.01 in - SE 5.8 mph - N/A   Clear
1:30 PM 87.8 °F 86.5 °F 57.2 °F 35% 30.01 in - ESE 5.8 mph - N/A   Clear
2:00 PM 89 °F - 57 °F 24% 30.00 in 19 mi SSE 6.7 mph - -   Scattered Clouds
2:00 PM 87.8 °F 86.5 °F 57.2 °F 35% 30.01 in 6.2 mi SSE 6.9 mph - N/A   Partly Cloudy
2:30 PM 89.6 °F 87.7 °F 55.4 °F 31% 29.98 in 6.2 mi Variable 5.8 mph - N/A   Partly Cloudy
3:00 PM 89.6 °F 88.1 °F 57.2 °F 33% 29.98 in 6.2 mi WSW 10.4 mph - N/A   Partly Cloudy
3:30 PM 87.8 °F 86.1 °F 55.4 °F 33% 29.98 in 6.2 mi SW 11.5 mph - N/A   Partly Cloudy
4:00 PM 87.8 °F 86.1 °F 55.4 °F 33% 29.98 in 6.2 mi SW 11.5 mph - N/A   Partly Cloudy
4:30 PM 89.6 °F 88.1 °F 57.2 °F 33% 29.98 in 6.2 mi SW 10.4 mph - N/A   Partly Cloudy
5:00 PM 89 °F - 57 °F 24% 29.96 in 19 mi SW 11.2 mph - -   Scattered Clouds
5:00 PM 89.6 °F 88.1 °F 57.2 °F 33% 29.95 in - SW 10.4 mph - N/A   Clear
5:30 PM 89.6 °F 88.1 °F 57.2 °F 33% 29.95 in - West 13.8 mph - N/A   Clear
6:00 PM 87.8 °F 86.1 °F 55.4 °F 33% 29.95 in - West 10.4 mph - N/A   Clear
6:30 PM 87.8 °F 86.1 °F 55.4 °F 33% 29.95 in - WNW 6.9 mph - N/A   Clear
7:00 PM 87.8 °F 86.5 °F 57.2 °F 35% 29.95 in - WNW 6.9 mph - N/A   Clear
7:30 PM 86.0 °F 84.9 °F 57.2 °F 37% 29.95 in - Variable 3.5 mph - N/A   Clear
8:00 PM 82 °F - 56 °F 31% 29.96 in 19 mi NE 2.2 mph - -   Clear
8:00 PM 82.4 °F 81.7 °F 55.4 °F 39% 29.95 in - Variable 3.5 mph - N/A   Clear
8:30 PM 82.4 °F 81.7 °F 55.4 °F 39% 29.98 in - NE 5.8 mph - N/A   Clear
9:00 PM 80.6 °F 80.5 °F 55.4 °F 42% 29.98 in - East 4.6 mph - N/A   Clear
9:30 PM 80.6 °F 80.5 °F 55.4 °F 42% 29.98 in - Calm Calm - N/A   Clear
10:00 PM 80.6 °F 80.5 °F 55.4 °F 42% 29.98 in - Variable 2.3 mph - N/A   Clear
10:30 PM 78.8 °F - 55.4 °F 44% 29.98 in - Variable 1.2 mph - N/A   Clear
11:00 PM 79 °F - 55 °F 33% 30.00 in - NE 4.5 mph - -  
11:00 PM 78.8 °F - 55.4 °F 44% 29.98 in - NE 5.8 mph - N/A   Clear
11:30 PM 78.8 °F - 55.4 °F 44% 29.98 in - Variable 3.5 mph - N/A   Clear